| time (UTC) | temp C | wind direction | speed KPH | gust KPH | rain 1hr cm | rain 24hr cm | rain mn cm | humidity % | barometer mb |
| 20260510103845 | 19 | 28 | 0.0 | 3.2 | 0.03 | 0.00 | 0.03 | 100 | 1013.6 |
| 20260510102344 | 19 | 31 | 0.0 | 0.0 | 0.03 | 0.00 | 0.03 | 100 | 1013.6 |
| 20260510100844 | 20 | 52 | 3.2 | 6.4 | 0.03 | 0.00 | 0.03 | 100 | 1013.2 |
| 20260510095344 | 18 | 60 | 0.0 | 4.8 | 0.03 | 0.00 | 0.03 | 100 | 1012.9 |
| 20260510093844 | 19 | 27 | 0.0 | 0.0 | 0.00 | 0.00 | 0.00 | 100 | 1012.9 |
| 20260510092344 | 20 | 27 | 0.0 | 0.0 | 0.00 | 0.00 | 0.00 | 100 | 1012.9 |
| 20260510090844 | 19 | 27 | 0.0 | 0.0 | 0.00 | 0.00 | 0.00 | 100 | 1012.9 |
| 20260510085343 | 19 | 27 | 0.0 | 0.0 | 0.00 | 0.00 | 0.00 | 100 | 1012.9 |
| 20260510083843 | 19 | 27 | 0.0 | 0.0 | 0.00 | 0.00 | 0.00 | 100 | 1012.9 |
| 20260510082343 | 19 | 27 | 0.0 | 0.0 | 0.00 | 0.00 | 0.00 | 100 | 1012.9 |
| 20260510080843 | 20 | 27 | 0.0 | 1.6 | 0.00 | 0.00 | 0.00 | 100 | 1012.6 |
| 20260510075342 | 20 | 18 | 1.6 | 6.4 | 0.00 | 0.00 | 0.00 | 100 | 1012.6 |
| 20260510073842 | 20 | 18 | 0.0 | 0.0 | 0.00 | 0.00 | 0.00 | 100 | 1012.9 |
| 20260510072342 | 20 | 18 | 0.0 | 4.8 | 0.00 | 0.00 | 0.00 | 100 | 1012.9 |
| 20260510070842 | 20 | 27 | 0.0 | 0.0 | 0.00 | 0.00 | 0.00 | 100 | 1012.6 |
| 20260510065342 | 20 | 27 | 3.2 | 8.0 | 0.00 | 0.00 | 0.00 | 100 | 1012.6 |
| 20260510063841 | 20 | 23 | 0.0 | 3.2 | 0.00 | 0.00 | 0.00 | 100 | 1012.6 |
| 20260510062341 | 20 | 59 | 0.0 | 3.2 | 0.00 | 0.00 | 0.00 | 100 | 1012.6 |
| 20260510060841 | 19 | 21 | 1.6 | 4.8 | 0.00 | 0.00 | 0.00 | 100 | 1012.6 |
| 20260510055341 | 20 | 63 | 1.6 | 6.4 | 0.00 | 0.00 | 0.00 | 100 | 1012.6 |
| 20260510053841 | 19 | 8 | 0.0 | 8.0 | 0.00 | 0.00 | 0.00 | 100 | 1012.9 |
| 20260510052341 | 20 | 23 | 0.0 | 3.2 | 0.00 | 0.00 | 0.00 | 100 | 1012.6 |
| 20260510050840 | 19 | 332 | 0.0 | 3.2 | 0.00 | 0.00 | 0.00 | 100 | 1012.6 |
| 20260510045340 | 19 | 323 | 0.0 | 1.6 | 0.00 | 0.00 | 0.00 | 100 | 1012.9 |
| 20260510043840 | 20 | 4 | 0.0 | 6.4 | 0.00 | 0.00 | 0.00 | 100 | 1012.9 |
| 20260510042340 | 19 | 283 | 0.0 | 6.4 | 0.00 | 0.00 | 0.00 | 100 | 1012.9 |
| 20260510040839 | 19 | 329 | 0.0 | 3.2 | 0.00 | 0.00 | 0.00 | 100 | 1012.6 |
| 20260510035339 | 19 | 84 | 0.0 | 3.2 | 0.00 | 0.00 | 0.00 | 100 | 1012.2 |
| 20260510033839 | 20 | 58 | 0.0 | 6.4 | 0.00 | 0.00 | 0.00 | 100 | 1012.2 |
| 20260510032339 | 19 | 87 | 0.0 | 3.2 | 0.00 | 0.00 | 0.00 | 100 | 1012.2 |
| 20260510030839 | 19 | 118 | 0.0 | 4.8 | 0.00 | 0.00 | 0.00 | 100 | 1012.2 |
| 20260510025339 | 19 | 76 | 3.2 | 6.4 | 0.00 | 0.00 | 0.00 | 100 | 1012.2 |
| 20260510023839 | 19 | 264 | 0.0 | 3.2 | 0.00 | 0.00 | 0.00 | 100 | 1012.9 |
| 20260510022338 | 20 | 314 | 6.4 | 9.7 | 0.00 | 0.00 | 0.00 | 100 | 1013.2 |
| 20260510020838 | 18 | 186 | 0.0 | 11.3 | 0.00 | 0.00 | 0.00 | 100 | 1012.2 |
| 20260510015338 | 18 | 104 | 1.6 | 8.0 | 0.00 | 0.00 | 0.00 | 100 | 1012.2 |
| 20260510013838 | 20 | 63 | 3.2 | 8.0 | 0.00 | 0.00 | 0.00 | 100 | 1012.9 |
| 20260510012338 | 19 | 60 | 0.0 | 6.4 | 0.00 | 0.00 | 0.00 | 100 | 1012.9 |
| 20260510010837 | 19 | 271 | 0.0 | 4.8 | 0.00 | 0.00 | 0.00 | 100 | 1013.2 |
| 20260510005337 | 18 | 215 | 0.0 | 1.6 | 0.00 | 0.00 | 0.00 | 100 | 1013.6 |
| 20260510003837 | 19 | 215 | 0.0 | 1.6 | 0.00 | 0.00 | 0.00 | 100 | 1012.9 |
| 20260510002337 | 18 | 335 | 0.0 | 0.0 | 0.00 | 0.00 | 0.00 | 100 | 1012.9 |
| 20260510000837 | 18 | 335 | 0.0 | 3.2 | 0.00 | 0.00 | 0.00 | 100 | 1012.6 |
| 20260509235336 | 20 | 295 | 1.6 | 3.2 | 0.00 | 0.00 | 0.00 | 100 | 1011.9 |
| 20260509233836 | 18 | 153 | 0.0 | 0.0 | 0.00 | 0.00 | 0.00 | 100 | 1011.6 |
| 20260509232336 | 18 | 101 | 4.8 | 12.9 | 0.00 | 0.00 | 0.00 | 100 | 1010.9 |
| 20260509230836 | 18 | 89 | 3.2 | 14.5 | 0.00 | 0.00 | 0.00 | 100 | 1011.2 |
| 20260509225335 | 18 | 66 | 3.2 | 9.7 | 0.00 | 0.00 | 0.00 | 100 | 1011.9 |
| 20260509223835 | 18 | 41 | 0.0 | 11.3 | 0.00 | 0.00 | 0.00 | 100 | 1011.9 |
| 20260509222335 | 18 | 111 | 3.2 | 8.0 | 0.00 | 0.00 | 0.00 | 100 | 1011.9 |
| 20260509220835 | 18 | 240 | 0.0 | 0.0 | 0.00 | 0.00 | 0.00 | 100 | 1012.6 |
| 20260509215335 | 18 | 17 | 0.0 | 4.8 | 0.00 | 0.00 | 0.00 | 100 | 1012.2 |
| 20260509213834 | 20 | 32 | 0.0 | 1.6 | 0.00 | 0.00 | 0.00 | 100 | 1011.9 |
| 20260509212334 | 19 | 148 | 0.0 | 6.4 | 0.00 | 0.00 | 0.00 | 100 | 1011.9 |
| 20260509210834 | 19 | 90 | 1.6 | 9.7 | 0.00 | 0.00 | 0.00 | 100 | 1012.2 |
| 20260509205334 | 20 | 84 | 0.0 | 1.6 | 0.00 | 0.00 | 0.00 | 100 | 1012.2 |
| 20260509203834 | 19 | 160 | 0.0 | 3.2 | 0.00 | 0.00 | 0.00 | 100 | 1012.9 |
| 20260509202333 | 20 | 62 | 0.0 | 0.0 | 0.00 | 0.00 | 0.00 | 100 | 1012.9 |
| 20260509200833 | 20 | 63 | 1.6 | 4.8 | 0.00 | 0.00 | 0.00 | 100 | 1011.9 |
| 20260509195333 | 19 | 65 | 4.8 | 12.9 | 0.00 | 0.00 | 0.00 | 100 | 1011.9 |
| 20260509193833 | 20 | 62 | 1.6 | 11.3 | 0.00 | 0.00 | 0.00 | 100 | 1012.6 |
| 20260509192333 | 20 | 218 | 1.6 | 9.7 | 0.00 | 0.00 | 0.00 | 100 | 1012.6 |
| 20260509190832 | 20 | 0 | 0.0 | 12.9 | 0.00 | 0.00 | 0.00 | 100 | 1012.9 |
| 20260509185332 | 20 | 138 | 0.0 | 8.0 | 0.00 | 0.00 | 0.00 | 100 | 1013.2 |
| 20260509183832 | 19 | 89 | 1.6 | 11.3 | 0.00 | 0.00 | 0.00 | 100 | 1012.9 |
| 20260509182332 | 20 | 97 | 0.0 | 6.4 | 0.00 | 0.00 | 0.00 | 100 | 1012.9 |
| 20260509180832 | 20 | 66 | 0.0 | 12.9 | 0.00 | 0.00 | 0.00 | 100 | 1012.6 |
| 20260509175331 | 20 | 98 | 4.8 | 12.9 | 0.00 | 0.00 | 0.00 | 100 | 1012.2 |
| 20260509173831 | 20 | 97 | 6.4 | 14.5 | 0.00 | 0.00 | 0.00 | 100 | 1011.9 |
| 20260509172331 | 20 | 80 | 1.6 | 9.7 | 0.00 | 0.00 | 0.00 | 100 | 1011.9 |
| 20260509170831 | 19 | 68 | 1.6 | 12.9 | 0.00 | 0.00 | 0.00 | 100 | 1012.2 |
| 20260509165331 | 20 | 75 | 0.0 | 9.7 | 0.00 | 0.00 | 0.00 | 100 | 1012.2 |
| 20260509163830 | 20 | 73 | 0.0 | 6.4 | 0.00 | 0.00 | 0.00 | 100 | 1012.9 |
| 20260509162330 | 18 | 100 | 0.0 | 6.4 | 0.00 | 0.00 | 0.00 | 100 | 1012.2 |
| 20260509160830 | 19 | 60 | 0.0 | 12.9 | 0.00 | 0.00 | 0.00 | 100 | 1012.6 |
| 20260509155330 | 18 | 94 | 0.0 | 6.4 | 0.00 | 0.00 | 0.00 | 100 | 1012.6 |
| 20260509153830 | 18 | 79 | 0.0 | 8.0 | 0.00 | 0.00 | 0.00 | 100 | 1012.9 |
| 20260509152330 | 19 | 59 | 0.0 | 8.0 | 0.00 | 0.00 | 0.00 | 100 | 1012.6 |
| 20260509150829 | 18 | 21 | 1.6 | 9.7 | 0.00 | 0.00 | 0.00 | 100 | 1012.2 |
| 20260509145329 | 18 | 113 | 3.2 | 9.7 | 0.00 | 0.00 | 0.00 | 100 | 1012.6 |
| 20260509143829 | 18 | 84 | 0.0 | 8.0 | 0.00 | 0.00 | 0.00 | 100 | 1011.9 |
| 20260509142329 | 18 | 14 | 1.6 | 4.8 | 0.00 | 0.00 | 0.00 | 100 | 1011.9 |
| 20260509140828 | 18 | 101 | 0.0 | 11.3 | 0.00 | 0.00 | 0.00 | 100 | 1012.2 |
| 20260509135328 | 18 | 59 | 1.6 | 12.9 | 0.00 | 0.00 | 0.00 | 100 | 1011.9 |
| 20260509133828 | 18 | 111 | 6.4 | 11.3 | 0.00 | 0.00 | 0.00 | 100 | 1011.9 |
| 20260509132328 | 18 | 264 | 0.0 | 1.6 | 0.00 | 0.00 | 0.00 | 100 | 1012.2 |
| 20260509130827 | 18 | 21 | 0.0 | 11.3 | 0.00 | 0.00 | 0.00 | 100 | 1011.9 |
| 20260509125327 | 18 | 84 | 8.0 | 12.9 | 0.00 | 0.00 | 0.00 | 100 | 1011.9 |
| 20260509123827 | 18 | 69 | 3.2 | 8.0 | 0.00 | 0.00 | 0.00 | 100 | 1012.2 |
| 20260509122327 | 18 | 295 | 0.0 | 11.3 | 0.00 | 0.00 | 0.00 | 100 | 1011.9 |
| 20260509120827 | 18 | 287 | 6.4 | 24.1 | 0.00 | 0.00 | 0.00 | 100 | 1012.2 |
| 20260509115327 | 20 | 311 | 8.0 | 35.4 | 0.00 | 0.00 | 0.00 | 100 | 1011.9 |
| 20260509113827 | 21 | 319 | 1.6 | 4.8 | 0.00 | 0.00 | 0.00 | 100 | 1010.9 |
| 20260509112326 | 20 | 108 | 0.0 | 1.6 | 0.00 | 0.00 | 0.00 | 100 | 1010.2 |
| 20260509110826 | 20 | 149 | 0.0 | 6.4 | 0.00 | 0.00 | 0.00 | 100 | 1009.5 |
| 20260509105326 | 21 | 55 | 0.0 | 4.8 | 0.00 | 0.00 | 0.00 | 100 | 1008.8 |